timestamp,surface_pressure_avg,surface_temp_avg,battery_voltage,lat,long
2020-12-14 00:09:01+00:00,350.4263,5.34,12.57,47.84626,-54.09684
2020-12-14 00:19:01+00:00,346.293,5.52,12.57,47.84626,-54.09684
2020-12-14 00:29:01+00:00,338.4313,5.59,12.57,47.84626,-54.09684
2020-12-14 00:39:01+00:00,329.1429,5.58,12.57,47.84626,-54.09684
2020-12-14 00:49:01+00:00,321.2863,5.58,12.57,47.84626,-54.09684
2020-12-14 00:59:01+00:00,314.7496,5.6,12.57,47.84626,-54.09684
2020-12-14 01:09:01+00:00,308.4614,5.6,12.57,47.84626,-54.09684
2020-12-14 01:19:01+00:00,300.6063,5.6,12.57,47.84626,-54.09684
2020-12-14 01:29:01+00:00,288.3863,5.6,12.57,47.84626,-54.09684
2020-12-14 01:39:01+00:00,271.5898,5.5,12.57,47.84626,-54.09684
2020-12-14 01:49:01+00:00,262.2448,5.5,12.57,47.84626,-54.09684
2020-12-14 01:59:01+00:00,257.1947,5.5,12.57,47.84626,-54.09684
2020-12-14 02:09:01+00:00,248.2615,5.49,12.57,47.84626,-54.09684
2020-12-14 02:19:01+00:00,233.8748,5.3,12.57,47.84626,-54.09684
2020-12-14 02:29:01+00:00,223.5081,5.29,12.57,47.84626,-54.09684
2020-12-14 02:39:01+00:00,217.9764,5.22,12.57,47.84626,-54.09684
2020-12-14 02:49:01+00:00,208.5198,5.24,12.57,47.84626,-54.09684
2020-12-14 02:59:01+00:00,196.7464,5.2,12.57,47.84626,-54.09684
2020-12-14 03:09:01+00:00,193.3548,4.67,12.57,47.84626,-54.09684
2020-12-14 03:19:01+00:00,190.1931,4.42,12.57,47.84626,-54.09684
2020-12-14 03:29:01+00:00,180.8781,4.65,12.57,47.84626,-54.09684
2020-12-14 03:39:01+00:00,185.0564,5.1,12.57,47.84626,-54.09684
2020-12-14 03:49:01+00:00,193.5531,4.9,12.57,47.84626,-54.09684
2020-12-14 03:59:01+00:00,185.4948,4.4,12.57,47.84626,-54.09684
2020-12-14 04:09:01+00:00,182.4714,4.64,12.57,47.84626,-54.09684
2020-12-14 04:19:01+00:00,186.4682,5.03,12.57,47.84626,-54.09684
2020-12-14 04:29:01+00:00,181.9498,5.0,12.57,47.84626,-54.09684
2020-12-14 04:39:01+00:00,179.1115,4.9,12.57,47.84626,-54.09684
2020-12-14 04:49:01+00:00,184.9781,4.9,12.57,47.84626,-54.09684
2020-12-14 04:59:01+00:00,184.8614,4.9,12.57,47.84626,-54.09684
2020-12-14 05:09:01+00:00,176.5181,4.9,12.57,47.84626,-54.09684
2020-12-14 05:19:01+00:00,179.9348,4.9,12.57,47.84626,-54.09684
2020-12-14 05:29:01+00:00,189.2681,4.9,12.57,47.84626,-54.09684
2020-12-14 05:39:01+00:00,192.6948,4.88,12.57,47.84626,-54.09684
2020-12-14 05:49:01+00:00,191.2965,4.3,12.57,47.84626,-54.09684
2020-12-14 05:59:01+00:00,200.2565,4.41,12.57,47.84626,-54.09684
2020-12-14 06:09:01+00:00,208.1065,4.95,12.57,47.84626,-54.09684
2020-12-14 06:19:01+00:00,206.6064,4.99,12.57,47.84626,-54.09684
2020-12-14 06:29:01+00:00,202.5398,4.98,12.57,47.84626,-54.09684
2020-12-14 06:39:01+00:00,210.2848,4.97,12.57,47.84626,-54.09684
2020-12-14 06:49:01+00:00,218.9397,5.0,12.57,47.84626,-54.09684
2020-12-14 06:59:01+00:00,218.1181,5.0,12.57,47.84626,-54.09684
2020-12-14 07:09:01+00:00,228.173,5.0,12.57,47.84626,-54.09684
2020-12-14 07:19:01+00:00,245.6431,5.1,12.57,47.84626,-54.09684
2020-12-14 07:29:01+00:00,247.1181,5.1,12.57,47.84626,-54.09684
2020-12-14 07:39:01+00:00,249.2581,5.15,12.57,47.84626,-54.09684
2020-12-14 07:49:01+00:00,268.4747,5.65,12.57,47.84626,-54.09684
2020-12-14 07:59:01+00:00,277.4247,5.7,12.57,47.84626,-54.09684
2020-12-14 08:09:01+00:00,273.1198,4.67,12.57,47.84626,-54.09684
2020-12-14 08:19:01+00:00,278.9847,5.66,12.57,47.84626,-54.09684
2020-12-14 08:29:01+00:00,295.4881,5.7,12.57,47.84626,-54.09684
2020-12-14 08:39:01+00:00,298.4997,5.6,12.57,47.84626,-54.09684
2020-12-14 08:49:01+00:00,303.5164,5.6,12.57,47.84626,-54.09684
2020-12-14 08:59:01+00:00,319.1246,5.65,12.57,47.84626,-54.09684
2020-12-14 09:09:01+00:00,330.7396,5.59,12.57,47.84626,-54.09684
2020-12-14 09:19:01+00:00,330.9379,5.6,12.57,47.84626,-54.09684
2020-12-14 09:29:01+00:00,338.4996,5.66,12.57,47.84626,-54.09684
2020-12-14 09:39:01+00:00,348.7731,5.7,12.57,47.84626,-54.09684
2020-12-14 09:49:01+00:00,348.9146,5.7,12.57,47.84626,-54.09684
2020-12-14 09:59:01+00:00,351.713,5.7,12.57,47.84626,-54.09684
2020-12-14 10:09:01+00:00,365.293,5.71,12.57,47.84626,-54.09684
2020-12-14 10:19:01+00:00,374.2396,5.7,12.57,47.84626,-54.09684
2020-12-14 10:29:01+00:00,366.3997,5.7,12.57,47.84626,-54.09684
2020-12-14 10:39:01+00:00,370.8579,5.7,12.57,47.84626,-54.09684
2020-12-14 10:49:01+00:00,384.2229,5.79,12.57,47.84626,-54.09684
2020-12-14 10:59:01+00:00,383.3879,5.7,12.57,47.84626,-54.09684
2020-12-14 11:09:01+00:00,381.0712,5.72,12.57,47.84626,-54.09684
2020-12-14 11:19:01+00:00,388.1195,5.79,12.57,47.84626,-54.09684
2020-12-14 11:29:01+00:00,391.2063,5.8,12.57,47.84626,-54.09684
2020-12-14 11:39:01+00:00,380.5046,5.7,12.57,47.84626,-54.09684
2020-12-14 11:49:01+00:00,378.9146,5.6,12.57,47.84626,-54.09684
2020-12-14 11:59:01+00:00,385.9863,5.6,12.57,47.84626,-54.09684
2020-12-14 12:09:01+00:00,384.4129,5.6,12.57,47.84626,-54.09684
2020-12-14 12:19:01+00:00,384.1595,5.59,12.57,47.84626,-54.09684
2020-12-14 12:29:01+00:00,379.9729,5.57,12.57,47.84626,-54.09684
2020-12-14 12:39:01+00:00,372.0513,5.58,12.57,47.84626,-54.09684
2020-12-14 12:49:01+00:00,356.898,5.56,12.57,47.84626,-54.09684
2020-12-14 12:59:01+00:00,351.0796,5.58,12.57,47.84626,-54.09684
2020-12-14 13:09:01+00:00,345.1346,5.55,12.57,47.84626,-54.09684
2020-12-14 13:19:01+00:00,342.5563,5.5,12.65,47.84626,-54.09684
2020-12-14 13:29:01+00:00,340.5829,5.5,12.65,47.84626,-54.09684
2020-12-14 13:39:01+00:00,324.093,5.4,12.65,47.84626,-54.09684
2020-12-14 13:49:01+00:00,309.7647,5.4,12.65,47.84626,-54.09684
2020-12-14 13:59:01+00:00,309.138,5.38,12.65,47.84626,-54.09684
2020-12-14 14:09:01+00:00,303.0547,5.3,12.65,47.84626,-54.09684
2020-12-14 14:19:01+00:00,285.0347,5.23,12.81,47.84626,-54.09684
2020-12-14 14:29:01+00:00,268.4647,5.2,12.81,47.84626,-54.09684
2020-12-14 14:39:01+00:00,262.3514,5.21,12.81,47.84626,-54.09684
2020-12-14 14:49:01+00:00,253.2948,5.27,12.81,47.84626,-54.09684
2020-12-14 14:59:01+00:00,240.2198,5.2,12.81,47.84626,-54.09684
2020-12-14 15:09:01+00:00,227.0497,5.2,12.81,47.84626,-54.09684
2020-12-14 15:19:01+00:00,214.2515,5.21,12.89,47.84626,-54.09684
2020-12-14 15:29:01+00:00,209.4114,5.25,12.89,47.84626,-54.09684
2020-12-14 15:39:01+00:00,205.8814,5.28,12.89,47.84626,-54.09684
2020-12-14 15:49:01+00:00,202.4214,5.3,12.89,47.84626,-54.09684
2020-12-14 15:59:01+00:00,196.2047,5.2,12.89,47.84626,-54.09684
2020-12-14 16:09:01+00:00,190.9131,5.1,12.89,47.84626,-54.09684
2020-12-14 16:19:01+00:00,188.7464,5.1,12.89,47.84626,-54.09684
2020-12-14 16:29:01+00:00,184.0765,5.09,12.89,47.84626,-54.09684
2020-12-14 16:39:01+00:00,176.5348,5.01,12.89,47.84626,-54.09684
2020-12-14 16:49:01+00:00,172.3831,5.0,12.89,47.84626,-54.09684
2020-12-14 16:59:01+00:00,174.6831,5.0,12.89,47.84626,-54.09684
2020-12-14 17:09:01+00:00,175.4482,5.0,12.89,47.84626,-54.09684
2020-12-14 17:19:01+00:00,171.0449,5.01,12.81,47.84626,-54.09684
2020-12-14 17:29:01+00:00,172.9265,5.06,12.81,47.84626,-54.09684
2020-12-14 17:39:01+00:00,174.1215,5.08,12.81,47.84626,-54.09684
2020-12-14 17:49:01+00:00,177.6331,5.1,12.81,47.84626,-54.09684
2020-12-14 17:59:01+00:00,180.4898,5.1,12.81,47.84626,-54.09684
2020-12-14 18:09:01+00:00,173.0298,5.1,12.81,47.84626,-54.09684
2020-12-14 18:19:01+00:00,172.0415,5.1,12.73,47.84626,-54.09684
2020-12-14 18:29:01+00:00,179.4348,5.1,12.73,47.84626,-54.09684
2020-12-14 18:39:01+00:00,179.2182,5.2,12.73,47.84626,-54.09684
2020-12-14 18:49:01+00:00,183.4048,5.2,12.73,47.84626,-54.09684
2020-12-14 18:59:01+00:00,194.6665,5.4,12.73,47.84626,-54.09684
2020-12-14 19:09:01+00:00,192.9865,5.4,12.73,47.84626,-54.09684
2020-12-14 19:19:01+00:00,190.2431,5.3,12.65,47.84626,-54.09684
2020-12-14 19:29:01+00:00,201.5548,5.27,12.65,47.84626,-54.09684
2020-12-14 19:39:01+00:00,214.3815,5.63,12.65,47.84626,-54.09684
2020-12-14 19:49:01+00:00,214.5348,5.58,12.65,47.84626,-54.09684
2020-12-14 19:59:01+00:00,218.7564,5.3,12.65,47.84626,-54.09684
2020-12-14 20:09:01+00:00,228.6048,5.2,12.65,47.84626,-54.09684
2020-12-14 20:19:01+00:00,232.9948,5.64,12.57,47.84626,-54.09684
2020-12-14 20:29:01+00:00,239.5297,5.8,12.57,47.84626,-54.09684
2020-12-14 20:39:01+00:00,250.3448,5.55,12.57,47.84626,-54.09684
2020-12-14 20:49:01+00:00,258.9281,5.83,12.57,47.84626,-54.09684
2020-12-14 20:59:01+00:00,264.8381,5.8,12.57,47.84626,-54.09684
2020-12-14 21:09:01+00:00,268.1231,5.75,12.57,47.84626,-54.09684
2020-12-14 21:19:01+00:00,280.9514,5.87,12.57,47.84626,-54.09684
2020-12-14 21:29:01+00:00,291.7064,5.9,12.57,47.84626,-54.09684
2020-12-14 21:39:01+00:00,302.7881,5.82,12.57,47.84626,-54.09684
2020-12-14 21:49:01+00:00,308.038,5.89,12.57,47.84626,-54.09684
2020-12-14 21:59:01+00:00,320.7946,5.98,12.57,47.84626,-54.09684
2020-12-14 22:09:01+00:00,330.468,6.0,12.57,47.84626,-54.09684
2020-12-14 22:19:01+00:00,331.2313,5.9,12.57,47.84626,-54.09684
2020-12-14 22:29:01+00:00,331.2463,5.9,12.57,47.84626,-54.09684
2020-12-14 22:39:01+00:00,342.343,5.9,12.57,47.84626,-54.09684
2020-12-14 22:49:01+00:00,354.3062,5.9,12.57,47.84626,-54.09684
2020-12-14 22:59:01+00:00,353.653,5.9,12.57,47.84626,-54.09684
2020-12-14 23:09:01+00:00,348.8113,5.9,12.57,47.84626,-54.09684
2020-12-14 23:19:01+00:00,356.1597,5.9,12.57,47.84626,-54.09684
2020-12-14 23:29:01+00:00,359.3229,5.97,12.57,47.84626,-54.09684
2020-12-14 23:39:01+00:00,356.9213,5.94,12.57,47.84626,-54.09684
2020-12-14 23:49:01+00:00,358.2812,5.94,12.57,47.84626,-54.09684
2020-12-14 23:59:01+00:00,365.2245,5.94,12.57,47.84626,-54.09684
